This demonstration page uses our WeatherBlox Daily Observations layout. Learn more.

Left ArrowRight Arrow

41.86663, -103.66717

Hourly Observations for June 13, 2021

Temp ( °F °C ) Dew Point ( °F °C ) Humidity (%) Winds ( mph kmh ) Pressure ( in mb ) Visibility ( mi km ) Precip ( " mm )
12:53 am 00:53 Clear 70 21.1 58 14.4 66 66 E 12 19 29.89 1012 10 16 N/A
1:53 am 01:53 Clear 69 20.6 59 15 70 70 ESE 10 17 29.90 1013 10 16 N/A
2:53 am 02:53 Clear 68 20 57 13.9 68 68 E 12 19 29.91 1013 10 16 N/A
3:53 am 03:53 Clear 66 18.9 54 12.2 65 65 E 10 17 29.93 1014 10 16 N/A
4:53 am 04:53 Clear 64 17.8 51 10.6 63 63 ESE 8 13 29.95 1014 10 16 N/A
5:53 am 05:53 Sunny 64 17.8 50 10 60 60 E 9 15 29.96 1015 10 16 N/A
6:53 am 06:53 Sunny 66 18.9 51 10.6 59 59 ESE 9 15 29.98 1015 10 16 N/A
7:53 am 07:53 Sunny 71 21.7 53 11.7 53 53 ESE 9 15 29.98 1015 10 16 N/A
8:53 am 08:53 Sunny 75 23.9 58 14.4 55 55 ESE 5 7 29.99 1016 10 16 N/A
9:53 am 09:53 Sunny 81 27.2 61 16.1 51 51 E 10 17 29.99 1016 10 16 N/A
10:53 am 10:53 Sunny 85 29.4 63 17.2 48 48 S 8 13 29.98 1015 10 16 N/A
11:53 am 11:53 Sunny 89 31.7 62 16.7 41 41 SSE 13 20 29.96 1014 10 16 N/A
12:53 pm 12:53 Sunny 92 33.3 62 16.7 37 37 S 9 15 29.93 1014 10 16 N/A
1:53 pm 13:53 Sunny 94 34.4 61 16.1 33 33 undefined N/A 29.91 1013 10 16 N/A
2:53 pm 14:53 Sunny 97 36.1 60 15.6 29 29 SE 13 20 29.88 1012 10 16 N/A
3:53 pm 15:53 Mostly Sunny 98 36.7 54 12.2 23 23 SE 8 13 29.87 1012 10 16 N/A
4:53 pm 16:53 Sunny with Nearby Thunderstorms 93 33.9 58 14.4 31 31 SSE 7 11 29.88 1012 10 16 N/A
5:12 pm 17:12 Sunny with Thunderstorms 92 33.3 58 14.4 32 32 SSE 8 13 29.66 1004 10 16 N/A
5:38 pm 17:38 Sunny with Nearby Thunderstorms 91 32.8 57 13.9 32 32 SSE 7 11 29.67 1005 10 16 N/A
5:53 pm 17:53 Windy with Storms Likely 85 29.4 56 13.3 37 37 W 25 41 29.92 1013 8 13 0.00 0.00
6:10 pm 18:10 Mostly Cloudy with Heavy Thunderstorms 74 23.3 61 16.1 64 64 W 26 43 29.83 1010 3 4 0.00 0.00
6:26 pm 18:26 Windy with Storms Likely 72 22 64 18 78 78 N 21 33 29.83 1010 8 13 N/A
6:39 pm 18:39 Mostly Cloudy with Light Thunderstorms 73 23 N/A N/A NE 16 26 29.81 1009 10 16 0.10 2.54
6:47 pm 18:47 Mostly Cloudy with Light Rain 77 25 N/A N/A ESE 13 20 29.75 1008 10 16 0.10 2.54
6:53 pm 18:53 Mostly Cloudy with Light Rain 77 25 N/A N/A SE 15 24 29.87 1011 10 16 0.10 2.54
7:00 pm 19:00 Partly Cloudy with Light Rain 82 28 N/A N/A ESE 17 28 29.69 1006 10 16 0.00 0.00
7:53 pm 19:53 Sunny 80 26.7 61 16.1 52 52 SW 3 6 29.88 1012 10 16 0.00 0.00
8:53 pm 20:53 Clear 71 21.7 56 13.3 59 59 ENE 15 24 29.96 1014 10 16 N/A
9:53 pm 21:53 Clear 72 22.2 52 11.1 50 50 ENE 16 26 29.95 1014 10 16 N/A
10:53 pm 22:53 Clear 74 23.3 56 13.3 54 54 SE 3 6 29.97 1015 10 16 N/A
11:53 pm 23:53 Clear 70 21.1 53 11.7 55 55 E 14 22 30.00 1016 10 16 N/A

Powered by AerisWeather